Flag for Kazakhstan Weather past 2 weeks in Shymkent, Kazakhstan

Now
91 °F

Passing clouds.


Feels Like: 87 °F
Forecast: 59 / 78 °F
Wind: 3 mph from Northwest

Location: Shymkent Airport

Current Time: Sep 17, 2014 at 2:17:12 PM

Latest Report: Sep 17, 2014 at 1:30 PM


Visibility: N/A

Pressure: 29.74 "Hg

Humidity: 10%

Dew point: 27 °F

Location of ShymkentLocation

Historic Weather in Shymkent — Graph

°F

Shymkent temperature yesterday

Maximum temperature yesterday: 84 °F (at 1:30 PM)
Minimum temperature yesterday: 54 °F (at 5:30 AM)
Average temperature yesterday: 70 °F

Past Weeks' High & Low Weather Summary

 TemperatureHumidityPressure
High93 °F (Sep 2, 3:00 PM)55% (Sep 15, 11:30 PM)30.04 "Hg (Sep 15, 11:30 PM)
Low50 °F (Sep 10, 7:30 AM)5% (Sep 14, 3:00 PM)29.68 "Hg (Sep 5, 11:00 PM)
Average71 °F20%29.90 "Hg
* Reported Sep 2 1:00 PM — Sep 17 1:00 PM, Shymkent, Weather by CustomWeather, © 2014

Note: Actual official high and low records may vary slightly from our data, if they occured in-between our weather recording intervals... More about our weather records

Advertising

Shymkent weather history for previous 24 hours

 ConditionsComfort  
Time TempWeatherWind HumidityBarometerVisibility
1:00 PM
Sep 17
91 °FPassing clouds.3 mph9%29.74 "HgN/A
12:30 PM91 °FPassing clouds.3 mph7%29.77 "HgN/A
12:00 PM91 °FSunny.1 mph7%29.77 "Hg10 mi
11:30 AM88 °FSunny.3 mph10%29.77 "Hg10 mi
11:00 AM86 °FPassing clouds.3 mph10%29.77 "HgN/A
10:30 AM84 °FSunny.3 mph14%29.77 "Hg10 mi
10:00 AM81 °FSunny.3 mph12%29.77 "Hg10 mi
9:30 AM77 °FSunny.6 mph14%29.77 "Hg10 mi
9:00 AM73 °FSunny.3 mph16%29.77 "Hg10 mi
8:30 AM72 °FSunny.No wind20%29.77 "Hg10 mi
8:00 AM68 °FSunny.6 mph20%29.77 "Hg10 mi
7:30 AM66 °FSunny.8 mph21%29.77 "Hg10 mi
7:00 AM66 °FSunny.8 mph22%29.77 "Hg10 mi
6:30 AM64 °FSunny.8 mph24%29.77 "Hg10 mi
6:00 AM64 °FClear.6 mph24%29.77 "Hg10 mi
5:30 AM63 °FClear.13 mph27%29.77 "Hg10 mi
5:00 AM63 °FClear.10 mph25%29.77 "Hg10 mi
4:30 AM63 °FClear.10 mph27%29.80 "Hg10 mi
4:00 AM64 °FClear.10 mph26%29.80 "Hg10 mi
3:30 AM64 °FClear.10 mph26%29.80 "Hg10 mi
3:00 AM63 °FClear.10 mph27%29.80 "Hg10 mi
2:30 AM63 °FClear.10 mph27%29.80 "Hg10 mi
2:00 AM61 °FClear.10 mph31%29.83 "Hg10 mi
1:30 AM61 °FClear.10 mph31%29.83 "Hg10 mi
1:00 AM64 °FClear.8 mph26%29.83 "Hg10 mi
12:30 AM63 °FClear.10 mph30%29.83 "Hg10 mi
12:00 AM61 °FClear.10 mph34%29.83 "Hg10 mi
11:30 PM
Sep 16
64 °FClear.10 mph30%29.86 "Hg10 mi
11:00 PM63 °FClear.8 mph34%29.86 "Hg10 mi
10:30 PM66 °FPassing clouds.3 mph26%29.86 "HgN/A
10:00 PM68 °FClear.3 mph24%29.86 "Hg4 mi
9:30 PM72 °FPassing clouds.6 mph20%29.86 "HgN/A
9:00 PM73 °FPassing clouds.6 mph17%29.86 "HgN/A
8:30 PM73 °FClear.6 mph19%29.86 "Hg10 mi
8:00 PM73 °FClear.6 mph20%29.86 "Hg10 mi
7:30 PM77 °FClear.3 mph18%29.86 "Hg10 mi
7:00 PM79 °FPassing clouds.3 mph15%29.86 "HgN/A
6:30 PM82 °FClear.1 mph13%29.86 "Hg10 mi
6:00 PM82 °FSunny.6 mph11%29.86 "Hg10 mi
5:30 PM82 °FPassing clouds.6 mph12%29.86 "HgN/A
5:00 PM84 °FSunny.10 mph10%29.86 "Hg10 mi
4:30 PM84 °FSunny.1 mph10%29.86 "Hg10 mi
4:00 PM84 °FPassing clouds.6 mph10%29.89 "HgN/A
3:30 PM84 °FPassing clouds.8 mph11%29.89 "HgN/A
3:00 PM84 °FSunny.3 mph10%29.89 "Hg10 mi
2:30 PM82 °FPassing clouds.6 mph12%29.89 "HgN/A
2:00 PM82 °FSunny.3 mph12%29.89 "Hg10 mi
Weather by CustomWeather, © 2014

See weather overviewHow to use our weather pages